Date String (YYYY-MM-DD hh:mm:ss) UTC,Instrument flags,Ambient pressure (hPa),Sample flow (lpm),Bypass flow (lpm),Sample temperature (°C),Ambient temperature (°C),ASC tube jacket temperature (°C),LED temperature (°C),Box temperature (°C),Sample RH (%),Span deviation,Mass concentration (μg/m³),Mass concentration (μg/m³),Mass concentration (μg/m³)
DateTimeUTC,F1_M11,P_M11,Q1_M11,Q2_M11,T1_M11,T2_M11,T3_M11,T4_M11,T5_M11,U1_M11,ZSPAN_M11,X0_M11,X2_M11,X1_M11
2022-09-25 20:00:00,,0834.6,4.99,0.00,30.2,27.8,00.0,38.9,31.9,15.9,0000.9,0013.74,0007.11,0006.47
2022-09-25 20:01:00,,0834.6,5.02,0.00,30.1,28.1,00.0,38.9,32.0,15.8,0000.0,0013.49,0007.09,0006.44
2022-09-25 20:02:00,,0834.6,4.99,0.00,30.2,28.4,00.0,38.9,32.0,16.1,0000.0,0013.13,0007.08,0006.42
2022-09-25 20:03:00,,0834.6,5.01,0.00,30.2,28.5,00.0,38.9,32.0,15.9,0000.0,0012.80,0007.07,0006.42
2022-09-25 20:04:00,,0834.6,5.00,0.00,30.2,28.7,00.0,38.9,32.1,16.0,0000.0,0013.01,0007.09,0006.41
2022-09-25 20:05:00,,0834.5,5.00,0.00,30.2,28.9,00.0,38.9,32.1,16.1,0000.7,0013.08,0007.08,0006.41
2022-09-25 20:06:00,,0834.5,5.00,0.00,30.2,29.0,00.0,38.9,32.1,16.1,0001.1,0013.31,0007.06,0006.40
2022-09-25 20:07:00,,0834.5,5.00,0.00,30.3,29.1,00.0,38.9,32.2,16.2,0001.1,0013.54,0007.11,0006.39
2022-09-25 20:08:00,,0834.5,5.01,0.00,30.3,29.2,00.0,38.9,32.2,16.3,0001.1,0013.36,0007.10,0006.37
2022-09-25 20:09:00,,0834.5,5.00,0.00,30.3,29.3,00.0,39.0,32.3,15.9,0001.6,0012.49,0007.15,0006.38
2022-09-25 20:10:00,,0834.4,5.00,0.00,30.4,29.3,00.0,39.0,32.3,15.8,0001.7,0012.41,0007.16,0006.40
2022-09-25 20:11:00,,0834.4,5.00,0.00,30.4,29.4,00.0,39.0,32.4,16.1,0001.0,0012.27,0007.12,0006.40
2022-09-25 20:12:00,,0834.4,5.02,0.00,30.4,29.0,00.0,39.0,32.4,15.7,0000.8,0012.14,0007.11,0006.41
2022-09-25 20:13:00,,0834.4,5.00,0.00,30.4,27.6,00.0,39.0,32.2,15.8,0001.2,0012.13,0007.09,0006.42
2022-09-25 20:14:00,,0834.4,4.99,0.00,30.4,27.3,00.0,39.0,32.1,15.4,0001.3,0012.07,0007.10,0006.44
2022-09-25 20:15:00,,0834.4,5.00,0.00,30.3,27.5,00.0,38.9,32.0,15.1,0001.7,0012.15,0007.12,0006.44
2022-09-25 20:16:00,,0834.4,5.01,0.00,30.2,27.7,00.0,38.9,32.0,15.3,0001.5,0012.13,0007.13,0006.42
2022-09-25 20:17:00,,0834.3,5.01,0.00,30.2,28.1,00.0,38.9,32.0,15.2,0001.6,0012.03,0007.11,0006.42
2022-09-25 20:18:00,,0834.3,4.99,0.00,30.2,28.4,00.0,38.9,32.1,15.1,0001.8,0012.11,0007.02,0006.40
2022-09-25 20:19:00,,0834.3,5.01,0.00,30.2,28.6,00.0,38.9,32.1,15.5,0001.4,0012.45,0007.01,0006.39
2022-09-25 20:20:00,,0834.3,4.99,0.00,30.3,28.8,00.0,38.9,32.1,16.4,0001.4,0013.05,0007.02,0006.40
2022-09-25 20:21:00,,0834.3,5.01,0.00,30.3,29.0,00.0,38.9,32.2,16.4,0001.3,0013.49,0007.03,0006.42
2022-09-25 20:22:00,,0834.2,4.99,0.00,30.3,29.1,00.0,39.0,32.2,16.4,0001.2,0013.75,0007.13,0006.48
2022-09-25 20:23:00,,0834.3,5.00,0.00,30.3,29.2,00.0,39.0,32.3,16.4,0001.8,0015.02,0007.19,0006.53
2022-09-25 20:24:00,,0834.3,4.99,0.00,30.4,29.3,00.0,39.0,32.3,16.5,0002.0,0015.22,0007.23,0006.59
2022-09-25 20:25:00,,0834.3,5.00,0.00,30.4,29.4,00.0,39.0,32.4,16.6,0001.8,0015.24,0007.25,0006.63
2022-09-25 20:26:00,,0834.3,5.01,0.00,30.4,29.3,00.0,39.0,32.4,16.3,0002.2,0015.04,0007.32,0006.71
2022-09-25 20:27:00,,0834.3,4.99,0.00,30.4,28.1,00.0,39.0,32.3,16.4,0002.2,0014.59,0007.39,0006.79
2022-09-25 20:28:00,,0834.2,4.99,0.00,30.4,26.7,00.0,39.0,32.1,16.5,0002.1,0014.48,0007.46,0006.87
2022-09-25 20:29:00,,0834.1,5.00,0.00,30.3,26.6,00.0,38.9,32.0,16.3,0002.0,0014.85,0007.55,0006.94
2022-09-25 20:30:00,,0834.1,5.00,0.00,30.2,26.9,00.0,38.9,31.9,16.2,0001.7,0014.91,0007.60,0007.00
2022-09-25 20:31:00,,0834.1,4.99,0.00,30.1,27.2,00.0,38.9,31.8,16.3,0001.5,0014.34,0007.59,0007.03
2022-09-25 20:32:00,,0834.1,5.00,0.00,30.1,27.6,00.0,38.9,31.8,16.3,0001.2,0013.72,0007.61,0007.04
2022-09-25 20:33:00,,0834.1,5.01,0.00,30.1,27.9,00.0,38.8,31.9,16.2,0001.8,0013.69,0007.58,0007.01
2022-09-25 20:34:00,,0834.1,4.99,0.00,30.1,28.2,00.0,38.8,31.9,16.1,0001.9,0012.58,0007.58,0006.99
2022-09-25 20:35:00,,0834.1,5.01,0.00,30.1,28.4,00.0,38.8,32.0,16.1,0001.1,0012.29,0007.57,0006.95
2022-09-25 20:36:00,,0834.1,5.00,0.00,30.1,28.6,00.0,38.8,32.0,16.1,0001.2,0012.47,0007.58,0006.93
2022-09-25 20:37:00,,0834.1,5.00,0.00,30.2,28.7,00.0,38.9,32.1,16.1,0000.8,0012.98,0007.53,0006.90
2022-09-25 20:38:00,,0834.1,5.01,0.00,30.2,28.9,00.0,38.9,32.1,16.1,0000.4,0013.09,0007.49,0006.88
2022-09-25 20:39:00,,0834.1,5.00,0.00,30.2,29.0,00.0,38.9,32.2,16.1,0000.5,0012.88,0007.46,0006.85
2022-09-25 20:40:00,,0834.0,5.00,0.00,30.3,29.1,00.0,38.9,32.2,16.3,0000.2,0012.16,0007.42,0006.83
2022-09-25 20:41:00,,0834.1,5.00,0.00,30.3,29.3,00.0,38.9,32.3,15.8,0000.3,0011.95,0007.45,0006.80
2022-09-25 20:42:00,,0834.1,5.01,0.00,30.4,28.7,00.0,38.9,32.3,15.6,0000.5,0011.84,0007.45,0006.77
2022-09-25 20:43:00,,0834.1,5.00,0.00,30.3,27.0,00.0,38.9,31.9,15.7,0000.7,0011.78,0007.41,0006.74
2022-09-25 20:44:00,,0834.0,5.00,0.00,30.2,26.4,00.0,38.9,31.8,15.8,0000.4,0011.88,0007.37,0006.74
2022-09-25 20:45:00,,0834.1,5.01,0.00,30.1,26.5,00.0,38.8,31.7,16.0,0000.5,0011.89,0007.35,0006.72
2022-09-25 20:46:00,,0834.0,5.00,0.00,30.0,26.9,00.0,38.8,31.7,16.2,0000.6,0011.86,0007.32,0006.71
2022-09-25 20:47:00,,0834.0,5.01,0.00,30.0,27.2,00.0,38.7,31.7,16.2,0001.2,0011.79,0007.31,0006.70
2022-09-25 20:48:00,,0834.0,5.01,0.00,30.0,27.6,00.0,38.7,31.7,16.4,0001.3,0011.31,0007.28,0006.67
2022-09-25 20:49:00,,0834.0,4.99,0.00,30.0,27.9,00.0,38.7,31.8,16.3,0001.7,0011.46,0007.26,0006.62
2022-09-25 20:50:00,,0834.0,4.99,0.00,30.0,28.2,00.0,38.7,31.9,16.4,0001.8,0012.49,0007.28,0006.61
2022-09-25 20:51:00,,0834.0,5.01,0.00,30.0,28.4,00.0,38.7,31.9,16.7,0002.3,0013.16,0007.31,0006.60
2022-09-25 20:52:00,,0834.0,4.99,0.00,30.0,28.6,00.0,38.7,32.0,16.7,0002.6,0013.04,0007.27,0006.59
2022-09-25 20:53:00,,0834.0,5.00,0.00,30.1,28.8,00.0,38.7,32.0,16.4,0002.8,0012.91,0007.21,0006.57
2022-09-25 20:54:00,,0834.0,5.01,0.00,30.1,28.9,00.0,38.8,32.1,16.3,0002.4,0012.82,0007.17,0006.56
2022-09-25 20:55:00,,0834.0,5.01,0.00,30.1,29.0,00.0,38.8,32.1,16.3,0002.5,0012.64,0007.17,0006.54
2022-09-25 20:56:00,,0834.0,5.00,0.00,30.2,29.1,00.0,38.8,32.2,16.3,0001.9,0012.57,0007.16,0006.53
2022-09-25 20:57:00,,0834.0,4.99,0.00,30.2,29.2,00.0,38.8,32.2,16.2,0001.8,0012.65,0007.15,0006.52
2022-09-25 20:58:00,,0834.0,4.99,0.00,30.3,29.2,00.0,38.8,32.3,16.0,0001.9,0012.66,0007.12,0006.51
2022-09-25 20:59:00,,0834.0,5.02,0.00,30.3,28.0,00.0,38.8,32.1,16.0,0002.0,0013.06,0007.15,0006.52
